Regional Weather Roundup
Issued by NWS Boston, MA

Current Version | Previous Version | Text Only | Print | Product List | Glossary Off
Versions: 1 2 3 4 5 6 7 8 9 10 11 12 13 14 15 16 17 18 19 20 21 22 23 24 25 26 27

000
ASUS41 KBOX 191010
RWRBOX

REGIONAL WEATHER ROUNDUP
NATIONAL WEATHER SERVICE TAUNTON MA
500 AM EST SUN NOV 19 2017

NOTE:  "FAIR" INDICATES FEW OR NO CLOUDS BELOW 12,000 FEET WITH NO
SIGNIFICANT WEATHER AND/OR OBSTRUCTIONS TO VISIBILITY.

MAZALL-191100-
EASTERN MASSACHUSETTS

CITY           SKY/WX    TMP DP  RH WIND       PRES   REMARKS
BOSTON         LGT RAIN  58  55  90 S16G24    29.26F
BEVERLY        LGT RAIN  58  55  90 S9        29.25F
LAWRENCE       LGT RAIN  58  54  86 S7        29.26F
BEDFORD        LGT RAIN  57  54  89 S13       29.25F
BLUE HILL      NOT AVBL
NORWOOD        RAIN      61  57  87 S13G25    29.27F FOG
MARSHFIELD     CLOUDY    63  57  82 SW17G32   29.29F
PLYMOUTH       CLOUDY    64  56  75 SW21G30   29.32F
TAUNTON        LGT RAIN  61  57  87 SW13G24   29.31F FOG
NEW BEDFORD    LGT RAIN  61  56  83 SW22G32   29.31F
$$

MAZALL-191100-
CAPE COD AND THE ISLANDS

CITY           SKY/WX    TMP DP  RH WIND       PRES   REMARKS
FALMOUTH       CLOUDY    63  57  82 SW30G37   29.35F
HYANNIS        CLOUDY    59  55  87 S16G25    29.34F
CHATHAM        CLOUDY    58  55  90 S13G26    29.38F
PROVINCETOWN   CLOUDY    58  55  90 S17G24    29.34F
NANTUCKET      CLOUDY    58  56  93 S18       29.40F
MARTHAS VNYRD  CLOUDY    62  57  83 SW26G36   29.36F
$$

MAZALL-191100-
CENTRAL AND WESTERN MASSACHUSETTS

CITY           SKY/WX    TMP DP  RH WIND       PRES   REMARKS
WORCESTER      LGT RAIN  54  51  90 SW17G25   29.25F
FITCHBURG      LGT RAIN  43  43 100 CALM      29.25F FOG
ORANGE         LGT RAIN  53  53 100 S12       29.21F
SPRINGFIELD    DRIZZLE   55  52  92 S16       29.20F
WESTFIELD      LGT RAIN  42  42 100 CALM      29.21F FOG
NORTH ADAMS    LGT RAIN  55  49  80 W10G17    29.16F
PITTSFIELD     CLOUDY    52  48  86 S13G26    29.16F
$$

RIZALL-191100-
RHODE ISLAND

CITY           SKY/WX    TMP DP  RH WIND       PRES   REMARKS
PROVIDENCE     RAIN      60  59  96 SW17G26   29.30F
NEWPORT        RAIN      60  57  89 S16G30    29.31F FOG
BLOCK ISLAND   LGT RAIN  60  57  89 SW25G36   29.33F FOG
SMITHFIELD     RAIN      57  55  94 VRB7G17   29.27F
WESTERLY       LGT RAIN  60  59  96 SW17G30   29.31F FOG
$$

CTZALL-191100-
CONNECTICUT

CITY           SKY/WX    TMP DP  RH WIND       PRES   REMARKS
BRADLEY INTL   LGT RAIN  55  54  96 S13       29.23F
HARTFORD       LGT RAIN  58  55  90 S12G18    29.25F
BRIDGEPORT     LGT RAIN  58  54  86 SW18      29.25F
DANBURY        LGT RAIN  57  53  86 SW13G22   29.23F
GROTON         LGT RAIN  59  56  89 SW22G37   29.28F
NEW HAVEN      LGT RAIN  58  54  86 S12G22    29.26F
CHESTER        LGT RAIN  57  57 100 SW12G28   29.28F
MERIDEN        RAIN      56  54  93 S9G18     29.24F
WILLIMANTIC    LGT RAIN  60  55  83 SW13G28   29.26F
OXFORD         LGT RAIN  54  53  97 VRB7G23   29.24F
$$

MEZ002-015-021-024-NHZ003-005-008-011-012-014-VTZ005-008-191100-
NORTHERN NEW ENGLAND

CITY           SKY/WX    TMP DP  RH WIND       PRES   REMARKS
PORTLAND ME    LGT RAIN  52  51  97 S14G22    29.26F
BANGOR ME      LGT RAIN  50  48  93 S10       29.31F
CONCORD NH     LGT RAIN  37  35  92 S3        29.22F VSB 3/4
MANCHESTER NH  FOG       39  39 100 CALM      29.24F VSB 1/2
NASHUA NH      LGT RAIN  38  38 100 NW6       29.26F FOG
PORTSMOUTH NH  LGT RAIN  52  51  98 SE9       29.23F FOG
JAFFREY NH     LGT RAIN  54  52  93 S15G21    29.21F
KEENE NH       LGT RAIN  49  49 100 S8        29.19F
BURLINGTON VT  LGT RAIN  47  44  90 S14       29.09F
MT. WASHINGTON LGT RAIN  34  34 100 SW36G47     N/A  VSB 0   WCI  19
$$

NYZ052-076-191100-
EASTERN NEW YORK

CITY           SKY/WX    TMP DP  RH WIND       PRES   REMARKS
ALBANY         LGT RAIN  50  46  86 S18G32    29.13F
NEW YORK CITY  LGT RAIN  59  55  87 SW15      29.25F
$$

ANZALL-191100-
MARINE OBSERVATIONS

STATION/POSITION TIME  TEMP    WIND        PRES    VSBY  WAVE
                       AIR SEA DIR/SP/G                  HT/PER
                 (UTC) (F)     (DEG/KT/KT) (MB)    (MI)  (FT/S)
BOSTON BUOY      0950   59 51  190/ 19/ 25  990.8F         3/ 4
BUZZARDS BAY     0900   61     200/ 30/ 33  993.7
NANTUCKET SOUND  0950   57 49  200/ 19/ 23  994.5F         3/ 4
MASS BAY-STELLWA 0904   56 50  200/ 16/ 19  991.8F         3/ 5
ISLE OF SHOALS   0900   52     160/ 21/ 22  991.4F
S OF BLOCK IS    NOT AVBL
$$

......................KEY.........................
  SKY/WX - SKY CONDITION/PRESENT WEATHER
  TMP    - TEMPERATURE IN FAHRENHEIT
  DWPT   - DEWPOINT IN FAHRENHEIT
  RH     - RELATIVE HUMIDITY IN PERCENT
  WIND   - DIRECTION AND SPEED IN MPH
  PRES   - MEAN SEA LEVEL PRESSURE IN INCHES OF HG
  WCI    - WIND CHILL INDEX
  VSB    - VISIBILITY IN MILES
  HX     - HEAT INDEX
  TC     - TEMPERATURE IN CELSIUS
  VRB    - VARIABLE WIND DIRECTION
  N/A    - NOT AVAILABLE




USA.gov is the U.S. government's official web portal to all federal, state and local government web resources and services.